APSTAR-7

Last updated on Mon Jun 22 2026 00:03:04 GMT+0000 (Coordinated Universal Time)

1 38107U 12013A 26172.40520435 -.00000103 00000+0 00000+0 0 9990 2 38107 0.0357 87.0287 0002686 10.8421 34.0990 1.00271651 51853
UTC large
Height (km)
Speed (km/s)
/
Latitude / Longitude
Inclination (degrees)
Orbital Period (minutes)
Azimuth
Elevation
Range (km)
Doppler Factor

Next 0 passes for location: London (51.5072 / 0.1276)

No passes found over London.
APSTAR-7